Location: Pedimozza
(42.0500°N, 9.3500°E)
Time: 15:59:30
(UTC+00:00)

Geosat - Pass Details

Date: 19 August 2019
Orbit: 763 x 766 km, 108.0° (Epoch: 14 September)

Event Time Altitude Azimuth Distance (km) Brightness Sun altitude
Exits shadow 20:06:28 35° 122° (ESE) 1,216 4.5 -18.6°
Maximum altitude 20:08:24 59° 59° (ENE) 883 4.1 -18.9°
Drops below altitude 10° 20:13:20 10° 341° (NNW) 2,309 7.3 -19.6°
Sets 20:15:39 0° 338° (NNW) 3,240 8.3 -20.0°
